Airfield :
LOGIN :

Register | Disclaimer

   EN    FR    IT 

 










Legend :    VFR   Marginal VFR   IFR   Intensive IFR   Very Intensive IFR
Visi :
Ceiling :
>= 8 km
>= 3000ft
5 to 8 km
1000 to 3000 ft
1500m to 5 km
500 to 1000 ft
800 to 1500m
200 to 500 ft
< 800m
< 200 ft
Symbols :   Thunderstorms  Fog  Heavy snow  Heavy precipitations  Wind > 20 kt
SIGMETs :     Misc.  Thunderstorms  Icing  Turbulence  Mountain Waves  Volcanic Ashes







- Airport Elevation : 163 ft
- IATA code : DGX


EGDX - St Athan

CURRENT METAR :
  • 251150Z 24016KT 9999 VCSH FEW024CB SCT038 11/07 Q1013 BLU

EXPIRED METARs :
  • 251050Z 25015KT 9999 VCSH SCT024CB SCT036 11/07 Q1013 WHT
  • 250950Z 26016KT 9999 VCSH SCT020CB SCT030 11/08 Q1013 WHT

TAF TAF EGDX
Valid from the 25 at 12:00 until the 25 at 18:00 UTC


251042Z 2512/2518 26015G25KT 9999 FEW025
TEMPO 2512/2516 7000 SHRA SCT020CB
PROB30
TEMPO 2512/2516 3000 +SHRA
BECMG 2514/2516 27023G35KT
No reported NOTAMs for that airfield.



MET'MAP, your aeronautical weather chart ! - Copyright ORBIFLY December 2007 - Disclaimer

ORBIFLY MET'MAP TEAM :

Programming & Development : Alexandra Zaïnal
Concept & Development : Baudouin d'Aumeries
Co-Development & Prog : Marc-Olivier Méhu
Technical & hardware support : Manuel Goepfert

Contact : metmap@orbifly.com




SOURCES & CREDITS :

   NOAA